Regional Weather Roundup
Issued by NWS Sterling, VA

Home | Current Version | Previous Version | Text Only | Print | Product List | Glossary On
Versions: 1 2 3 4 5 6 7 8 9 10 11 12 13 14 15 16 17 18 19 20 21 22 23 24 25 26 27 28
000
ASUS41 KLWX 260110
RWRLWX

REGIONAL WEATHER ROUNDUP
NATIONAL WEATHER SERVICE BALTIMORE MD/WASHINGTON DC
900 PM EDT WED APR 25 2018

Note: "FAIR" indicates few or no clouds below 12,000 feet
with no significant weather and/or obstructions to visibility.
 TC=TEMPERATURE CELSIUS

 * =Non NWS site. Station does not report precipitation (e.g. rain,
    snow, etc.), thunder, or fog.

DCZ001-MDZ009-015-VAZ040>042-051-053>054-260200-
WASHINGTON METRO

CITY           SKY/WX    TMP DP  RH WIND       PRES   REMARKS
WASHINGTON NAT CLOUDY    63  57  81 N5        29.73R
DULLES         CLOUDY    59  59 100 CALM      29.73R
ANDREWS AFB    CLOUDY    60  58  93 W3        29.72R
FT BELVOIR     CLOUDY    60  57  89 CALM      29.73R
QUANTICO       CLOUDY    62  61  96 CALM      29.74R
COLLEGE PARK*  CLOUDY    61  57  88 CALM      29.72R
LEESBURG*      CLOUDY    59  55  88 NW6       29.75R
MANASSAS*      CLOUDY    60  58  92 CALM      29.74R
GAITHERSBURG*  CLOUDY    59  57  93 CALM      29.74R

$$

MDZ006>007-011-014-260200-
BALTIMORE METRO

CITY           SKY/WX    TMP DP  RH WIND       PRES   REMARKS
BWI AIRPORT    CLOUDY    61  59  93 VRB3      29.71R
MD SCIENCE CTR   N/A     63  58  83 MISG      29.70R
MARTIN STATE   CLOUDY    64  61  88 NW8       29.71R
ANNAPOLIS      CLOUDY    64  58  80 NW5       29.70R
FORT MEADE*    CLOUDY    59  55  88 W3        29.75R

$$

MDZ012-015-019>023-260200-
MARYLAND EASTERN SHORE

CITY           SKY/WX    TMP DP  RH WIND       PRES   REMARKS
OCEAN CITY     CLOUDY    62  60  93 W6        29.67R
SALISBURY      CLOUDY    64  60  87 W6        29.67R
BAY BRIDGE AP* CLOUDY    61  57  88 NW8       29.70R
CAMBRIDGE*     CLOUDY    61  61 100 W6        29.69R FOG
EASTON*        CLOUDY    63  61  94 NW5       29.73R FOG

$$

MDZ017>025-260200-
SOUTHERN MARYLAND

CITY           SKY/WX    TMP DP  RH WIND       PRES   REMARKS
PATUXENT RIVER CLOUDY    63  60  90 W8        29.71R
ST INIGOES     LGT RAIN  60  59  96 W9        29.72R
LEONARDTOWN*   CLOUDY    59  57  94 W3        29.74R

$$

MDZ003>005-260200-
NORTH CENTRAL MARYLAND

CITY           SKY/WX    TMP DP  RH WIND       PRES   REMARKS
FREDERICK*     CLOUDY    59  59 100 CALM      29.76R
HAGERSTOWN APT CLOUDY    61  52  72 NW14      29.75R
WESTMINSTER*   CLOUDY    61  57  88 CALM      29.73R

$$

MDZ501>502-260200-
WESTERN MARYLAND

CITY           SKY/WX    TMP DP  RH WIND       PRES   REMARKS
OAKLAND*       CLOUDY    45  45 100 NW8G17    29.83R VSB 1/4
CUMBERLAND*    MOCLDY    59  50  72 NW12      29.84R

$$

VAZ025>031-260200-
SHENANDOAH VALLEY

CITY           SKY/WX    TMP DP  RH WIND       PRES   REMARKS
WINCHESTER*    CLOUDY    61  50  67 NW13G18   29.79R
FRONT ROYAL*   CLOUDY    61  52  72 NW3       29.77R
LURAY*         CLOUDY    63  50  63 NW10G18   29.78R
NEW MARKET*    CLOUDY    61  50  66 CALM      29.77R
STAUNTON*      CLOUDY    61  48  62 NW9       29.81R
WAYNESBORO*    CLOUDY    61  49  63 NW6       29.79R

$$

WVZ021-048>050-054>055-260200-
EASTERN WEST VIRGINIA PANHANDLE

CITY           SKY/WX    TMP DP  RH WIND       PRES   REMARKS
MARTINSBURG    CLOUDY    62  50  64 NW12G21   29.75R
PETERSBURG*    MOCLDY    58  48  69 N8        29.81R

$$

VAZ036>039-050-260200-
CENTRAL FOOTHILLS

CITY           SKY/WX    TMP DP  RH WIND       PRES   REMARKS
CHARLOTTESVILL CLOUDY    67  52  58 N5        29.75R
CULPEPER*      CLOUDY    60  58  92 CALM      29.76R
ORANGE*        CLOUDY    61  59  94 CALM      29.75R
GORDONSVILLE*  CLOUDY    61  60  96 CALM      29.74S
WARRENTON*     CLOUDY    60  56  87 CALM      29.74R

$$

VAZ055>057-260200-
NORTH AND CENTRAL PIEDMONT

CITY           SKY/WX    TMP DP  RH WIND       PRES   REMARKS
FREDERICKSBRG* CLOUDY    60  60 100 CALM      29.74R
STAFFORD*      CLOUDY    61  61 100 CALM      29.77R

$$

NCZ024-NYZ072-PAZ021-071-VAZ022-071-260200-
OTHER REGIONAL OBSERVATIONS

CITY           SKY/WX    TMP DP  RH WIND       PRES   REMARKS
NEW YORK CITY  CLOUDY    56  55  97 SE5       29.69S FOG
PHILADELPHIA   CLOUDY    63  59  87 NW10      29.67R
PITTSBURGH     MOCLDY    47  40  76 NW12      29.90R
ROANOKE        FAIR      59  48  67 NW8       29.83R
RICHMOND       CLOUDY    63  61  93 NW5       29.75R
RALEIGH        FAIR      56  55  97 CALM      29.79R

$$

ANZ530>537-260200-
MARINE OBSERVATIONS

STATION/POSITION TIME  TEMP    WIND        PRES
                       AIR SEA DIR/SP/G
                 (UTC) (F)     (DEG/KT/KT) (MB)
THOMAS PT LIGHT  0100   61 54  320/  8/  9 1006.9R
BALT KEY BRIDGE  0048   62     320/ 11/ 12 1005.7R
COVE POINT       0048   61     290/  8/ 12 1006.6R
LEWISETTA        0048   62 55  310/  9/ 11 1006.5R
SOLOMONS ISLAND  0048   60 54  300/  7/ 11 1006.0R
PINEY POINT      0048          320/ 11/ 12   N/A

$$





USA.gov is the U.S. government's official web portal to all federal, state and local government web resources and services.